This is the latest recevied weather packets stored in our database for station/object WD5U-1. If no packets are shown the sender has not sent any weather packets the latest 10 day(s).
| Time | Temp. | Humidity | Pressure | Rain* | Wind** | Luminosity | Snow |
|---|---|---|---|---|---|---|---|
| 1777576102 | 17.22° C | 74% | 1016 hPa | 0 mm | - | - | - |
| 1777575736 | 17.22° C | 75% | 1016 hPa | 0 mm | - | - | - |
| 1777575382 | 17.22° C | 75% | 1016.4 hPa | 0 mm | - | - | - |
| 1777575262 | 17.22° C | 76% | 1016.6 hPa | 0 mm | - | - | - |
| 1777574898 | 17.22° C | 75% | 1016.4 hPa | 0 mm | - | - | - |
| 1777574787 | 17.22° C | 75% | 1016.2 hPa | 0 mm | - | - | - |
| 1777574056 | 17.22° C | 76% | 1016.4 hPa | 0 mm | - | - | - |
| 1777573702 | 17.78° C | 76% | 1016.5 hPa | 0 mm | - | - | - |
| 1777572983 | 17.22° C | 77% | 1016.4 hPa | 0 mm | - | - | - |
| 1777572864 | 17.22° C | 76% | 1016.3 hPa | 0 mm | - | - | - |
| 1777572740 | 17.22° C | 77% | 1016.2 hPa | 0 mm | - | - | - |
| 1777572266 | 17.22° C | 77% | 1016.2 hPa | 0 mm | - | - | - |
| 1777571305 | 16.67° C | 79% | 1016.3 hPa | 0 mm | - | - | - |
| 1777570483 | 16.67° C | 80% | 1015.6 hPa | 0 mm | - | - | - |
| 1777570098 | 16.67° C | 80% | 1015.5 hPa | 0 mm | - | - | - |
| 1777569258 | 17.22° C | 79% | 1017.7 hPa | 0 mm | - | - | - |
| 1777568296 | 16.67° C | 78% | 1017.6 hPa | 0 mm | - | - | - |
| 1777567699 | 17.22° C | 79% | 1017.7 hPa | 0 mm | - | - | - |
| 1777566980 | 16.67° C | 80% | 1017.4 hPa | 0 mm | - | - | - |
| 1777566507 | 16.11° C | 81% | 1017.4 hPa | 0 mm | - | - | - |
| 1777565897 | 16.67° C | 84% | 1017.4 hPa | 0 mm | - | - | - |
| 1777565301 | 16.11° C | 84% | 1017.2 hPa | 0 mm | - | - | - |
| 1777564946 | 16.11° C | 85% | 1017.3 hPa | 0 mm | - | - | - |
| 1777563144 | 16.67° C | 83% | 1018.6 hPa | 0 mm | - | - | - |
| 1777563022 | 16.11° C | 83% | 1018.8 hPa | 0 mm | - | - | - |
* Rain latest hour (hover to see other rain measurements)
** Current wind speed in m/s (hover to see current wind gust speed)